Estación de Linares 2
Ultimos registro cada 15 minutos 40
| N° | Estación | Fecha / Hora | Temperatura | Humedad | Lluvia | Velocidad | Dirección | Radiación | Presion |
| 40 | Linares 2 | 07-05-2026 13:45 | 14,1 | 71 | 0 | 0,4 | 268 | 587 | 1026,4 |
| 39 | Linares 2 | 07-05-2026 13:30 | 13,8 | 69 | 0 | 0 | 311 | 601 | 1026,4 |
| 38 | Linares 2 | 07-05-2026 13:15 | 13,6 | 73 | 0 | 1,3 | 141 | 585 | 1026,7 |
| 37 | Linares 2 | 07-05-2026 13:00 | 13,2 | 74 | 0 | 0,4 | 258 | 561 | 1026,9 |
| 36 | Linares 2 | 07-05-2026 11:45 | 9,8 | 92 | 0 | 0,9 | 228 | 468 | 1027,4 |
| 35 | Linares 2 | 07-05-2026 11:30 | 9,4 | 96 | 0 | 0,9 | 220 | 439 | 1027,6 |
| 34 | Linares 2 | 07-05-2026 11:15 | 9 | 96 | 0 | 0 | 247 | 406 | 1027,6 |
| 33 | Linares 2 | 07-05-2026 11:00 | 8,6 | 96 | 0,2 | 0,4 | 271 | 348 | 1027,4 |
| 32 | Linares 2 | 07-05-2026 10:45 | 8,1 | 96 | 0 | 0 | 279 | 362 | 1027,2 |
| 31 | Linares 2 | 07-05-2026 10:30 | 7,7 | 96 | 0 | 0 | 337 | 98 | 1027,2 |
| 30 | Linares 2 | 07-05-2026 10:15 | 7,3 | 96 | 0 | 0 | 356 | 123 | 1027,3 |
| 29 | Linares 2 | 07-05-2026 10:00 | 6,7 | 96 | 0 | 0,4 | 48 | 107 | 1027,2 |
| 28 | Linares 2 | 07-05-2026 09:45 | 6 | 95 | 0 | 0,4 | 11 | 84 | 1026,9 |
| 27 | Linares 2 | 07-05-2026 09:30 | 5,7 | 95 | 0 | 0,9 | 44 | 54 | 1026,8 |
| 26 | Linares 2 | 07-05-2026 09:15 | 5,3 | 95 | 0 | 0 | 52 | 44 | 1026,4 |
| 25 | Linares 2 | 07-05-2026 09:00 | 4,3 | 95 | 0 | 0,4 | 166 | 30 | 1026,4 |
| 24 | Linares 2 | 07-05-2026 08:45 | 3,7 | 94 | 0 | 0 | 252 | 12 | 1026,3 |
| 23 | Linares 2 | 07-05-2026 08:30 | 3,7 | 93 | 0 | 0,4 | 252 | 5 | 1026,2 |
| 22 | Linares 2 | 07-05-2026 08:15 | 3,9 | 93 | 0 | 0 | 252 | 0 | 1026,2 |
| 21 | Linares 2 | 07-05-2026 08:00 | 4,3 | 93 | 0 | 0 | 252 | 0 | 1026,1 |
| 20 | Linares 2 | 07-05-2026 07:45 | 4,4 | 93 | 0 | 0 | 252 | 0 | 1025,8 |
| 19 | Linares 2 | 07-05-2026 07:30 | 4,7 | 93 | 0 | 0 | 252 | 0 | 1025,5 |
| 18 | Linares 2 | 07-05-2026 07:15 | 4,8 | 94 | 0 | 0 | 252 | 0 | 1025,6 |
| 17 | Linares 2 | 07-05-2026 07:00 | 4,7 | 94 | 0 | 0 | 252 | 0 | 1025,4 |
| 16 | Linares 2 | 07-05-2026 04:45 | 5,3 | 92 | 0 | 0 | 223 | 0 | 1023,9 |
| 15 | Linares 2 | 07-05-2026 04:30 | 6,1 | 92 | 0 | 0 | 168 | 0 | 1023,8 |
| 14 | Linares 2 | 07-05-2026 04:15 | 6,8 | 94 | 0 | 0 | 168 | 0 | 1024 |
| 13 | Linares 2 | 07-05-2026 04:00 | 6,3 | 94 | 0 | 0 | 122 | 0 | 1023,9 |
| 12 | Linares 2 | 07-05-2026 03:45 | 5,5 | 92 | 0 | 0 | 81 | 0 | 1023,7 |
| 11 | Linares 2 | 07-05-2026 03:30 | 5,8 | 91 | 0 | 0 | 81 | 0 | 1023,7 |
| 10 | Linares 2 | 07-05-2026 03:15 | 6,1 | 91 | 0 | 0 | 81 | 0 | 1023,7 |
| 9 | Linares 2 | 07-05-2026 03:00 | 6,6 | 91 | 0 | 0 | 79 | 0 | 1023,9 |
| 8 | Linares 2 | 07-05-2026 02:45 | 6,8 | 92 | 0 | 0 | 79 | 0 | 1023,9 |
| 7 | Linares 2 | 07-05-2026 02:30 | 7,1 | 90 | 0 | 0 | 65 | 0 | 1023,6 |
| 6 | Linares 2 | 07-05-2026 02:15 | 7,9 | 92 | 0 | 0 | 269 | 0 | 1023,1 |
| 5 | Linares 2 | 07-05-2026 02:00 | 8,1 | 93 | 0 | 0 | 269 | 0 | 1023,2 |
| 4 | Linares 2 | 07-05-2026 01:45 | 7,8 | 92 | 0 | 0 | 277 | 0 | 1023 |
| 3 | Linares 2 | 07-05-2026 01:30 | 7,7 | 92 | 0 | 0 | 277 | 0 | 1023,2 |
| 2 | Linares 2 | 07-05-2026 01:15 | 7,6 | 92 | 0 | 0 | 277 | 0 | 1023 |
| 1 | Linares 2 | 07-05-2026 01:00 | 7,6 | 90 | 0 | 0 | 277 | 0 | 1022,8 |